Precipitable_Water
0.69 0.67 0.64 0.64 0.64 0.65 0.64 0.64 0.64 0.64 0.64 0.64 0.64 0.62 0.61 0.59 0.59 0.54 0.42 0.59 0.60 0.57 0.49 0.41 0.37 0.36 0.39 0.31 0.37 0.35 0.14 0.10 0.12 0.12 0.14 0.23 0.19 0.24 0.34 0.25 0.25 0.28 0.32 0.41 0.47
0.66 0.66 0.68 0.67 0.64 0.62 0.62 0.64 0.63 0.61 0.61 0.62 0.62 0.62 0.62 0.60 0.51 0.44 0.63 0.69 0.63 0.54 0.40 0.33 0.26 0.29 0.25 0.28 0.30 0.23 0.13 0.12 0.17 0.18 0.16 0.20 0.24 0.22 0.23 0.20 0.22 0.25 0.28 0.32 0.33
0.65 0.65 0.64 0.62 0.63 0.62 0.62 0.61 0.61 0.62 0.64 0.64 0.62 0.62 0.62 0.59 0.41 0.42 0.68 0.67 0.61 0.53 0.46 0.41 0.36 0.29 0.21 0.26 0.28 0.27 0.16 0.21 0.20 0.24 0.26 0.24 0.22 0.28 0.23 0.16 0.20 0.22 0.28 0.33 0.34
0.61 0.61 0.61 0.61 0.61 0.61 0.59 0.58 0.57 0.60 0.63 0.63 0.62 0.63 0.63 0.51 0.20 0.51 0.70 0.65 0.59 0.54 0.45 0.38 0.33 0.25 0.21 0.18 0.29 0.20 0.26 0.28 0.27 0.30 0.27 0.23 0.27 0.24 0.25 0.24 0.29 0.30 0.29 0.30 0.31
0.61 0.61 0.60 0.60 0.60 0.58 0.57 0.55 0.56 0.61 0.62 0.62 0.62 0.63 0.52 0.33 0.34 0.61 0.71 0.62 0.57 0.51 0.41 0.35 0.28 0.27 0.20 0.25 0.28 0.26 0.26 0.29 0.31 0.30 0.30 0.31 0.25 0.28 0.26 0.33 0.33 0.33 0.33 0.30 0.29
0.61 0.62 0.61 0.59 0.58 0.57 0.54 0.53 0.56 0.61 0.62 0.62 0.62 0.61 0.43 0.25 0.56 0.65 0.68 0.59 0.53 0.48 0.43 0.41 0.34 0.37 0.29 0.28 0.27 0.31 0.31 0.30 0.32 0.31 0.32 0.29 0.25 0.31 0.27 0.34 0.31 0.31 0.31 0.32 0.31
0.61 0.61 0.61 0.59 0.58 0.57 0.55 0.54 0.57 0.60 0.63 0.64 0.63 0.58 0.40 0.33 0.58 0.63 0.64 0.58 0.57 0.51 0.41 0.47 0.46 0.36 0.36 0.29 0.37 0.34 0.27 0.29 0.29 0.30 0.31 0.35 0.19 0.24 0.34 0.35 0.31 0.30 0.30 0.33 0.33
0.61 0.63 0.62 0.59 0.57 0.55 0.52 0.54 0.58 0.61 0.62 0.64 0.65 0.56 0.33 0.57 0.63 0.59 0.62 0.56 0.60 0.58 0.52 0.54 0.53 0.44 0.39 0.40 0.35 0.29 0.29 0.19 0.27 0.31 0.34 0.35 0.13 0.29 0.36 0.34 0.32 0.34 0.34 0.33 0.35
0.65 0.65 0.61 0.58 0.55 0.52 0.51 0.55 0.61 0.66 0.64 0.65 0.57 0.49 0.33 0.60 0.50 0.59 0.62 0.50 0.53 0.56 0.58 0.57 0.53 0.40 0.40 0.29 0.25 0.27 0.18 0.19 0.22 0.33 0.34 0.33 0.20 0.31 0.37 0.37 0.32 0.35 0.36 0.36 0.36
0.67 0.64 0.62 0.61 0.56 0.52 0.55 0.59 0.63 0.64 0.64 0.62 0.56 0.36 0.42 0.38 0.49 0.56 0.64 0.57 0.47 0.48 0.45 0.45 0.41 0.33 0.33 0.28 0.16 0.19 0.20 0.21 0.23 0.31 0.36 0.32 0.25 0.32 0.37 0.37 0.33 0.35 0.36 0.37 0.37
0.66 0.64 0.62 0.60 0.55 0.53 0.54 0.46 0.35 0.31 0.40 0.27 0.28 0.30 0.34 0.47 0.55 0.51 0.58 0.51 0.49 0.42 0.31 0.40 0.31 0.24 0.28 0.31 0.31 0.29 0.27 0.24 0.27 0.36 0.34 0.30 0.27 0.29 0.30 0.35 0.34 0.34 0.36 0.37 0.37
0.62 0.62 0.61 0.59 0.54 0.57 0.54 0.35 0.37 0.41 0.23 0.33 0.34 0.37 0.43 0.48 0.35 0.44 0.57 0.39 0.37 0.29 0.37 0.34 0.26 0.33 0.35 0.35 0.32 0.31 0.27 0.25 0.29 0.37 0.37 0.32 0.22 0.28 0.32 0.32 0.35 0.35 0.36 0.36 0.37
0.52 0.57 0.60 0.57 0.55 0.52 0.44 0.43 0.56 0.51 0.22 0.24 0.33 0.34 0.39 0.43 0.33 0.37 0.45 0.41 0.34 0.31 0.32 0.28 0.31 0.37 0.35 0.32 0.30 0.31 0.29 0.27 0.29 0.35 0.39 0.33 0.22 0.23 0.32 0.36 0.37 0.40 0.40 0.38 0.36
0.61 0.47 0.55 0.53 0.44 0.48 0.40 0.53 0.53 0.50 0.15 0.16 0.25 0.35 0.40 0.41 0.31 0.47 0.51 0.42 0.36 0.30 0.35 0.32 0.39 0.35 0.33 0.30 0.34 0.25 0.35 0.34 0.33 0.32 0.23 0.37 0.16 0.22 0.28 0.33 0.39 0.42 0.45 0.43 0.36
0.72 0.61 0.47 0.51 0.44 0.38 0.46 0.52 0.52 0.39 0.06 0.18 0.27 0.49 0.42 0.31 0.32 0.37 0.54 0.45 0.31 0.33 0.36 0.30 0.33 0.33 0.30 0.31 0.37 0.30 0.38 0.36 0.35 0.31 0.30 0.29 0.26 0.20 0.29 0.29 0.36 0.43 0.49 0.52 0.41
0.79 0.75 0.57 0.46 0.46 0.51 0.56 0.51 0.41 0.13 0.06 0.14 0.27 0.27 0.26 0.30 0.30 0.38 0.41 0.50 0.47 0.37 0.38 0.36 0.46 0.41 0.36 0.38 0.39 0.41 0.36 0.33 0.33 0.31 0.21 0.26 0.26 0.18 0.25 0.31 0.39 0.44 0.49 0.56 0.53
0.77 0.80 0.74 0.51 0.37 0.58 0.53 0.40 0.13 0.08 0.14 0.13 0.17 0.24 0.22 0.21 0.24 0.29 0.29 0.30 0.26 0.22 0.25 0.32 0.35 0.40 0.42 0.33 0.39 0.39 0.33 0.21 0.20 0.20 0.18 0.27 0.25 0.23 0.31 0.39 0.43 0.42 0.48 0.55 0.59
0.85 0.78 0.77 0.76 0.56 0.57 0.44 0.21 0.09 0.10 0.11 0.21 0.20 0.22 0.17 0.21 0.23 0.26 0.25 0.22 0.30 0.31 0.27 0.26 0.25 0.32 0.39 0.34 0.31 0.33 0.33 0.25 0.16 0.16 0.19 0.26 0.20 0.23 0.34 0.44 0.48 0.51 0.53 0.57 0.56
0.89 0.77 0.70 0.74 0.75 0.54 0.32 0.13 0.10 0.11 0.14 0.16 0.20 0.14 0.15 0.21 0.22 0.23 0.22 0.22 0.27 0.32 0.25 0.27 0.29 0.39 0.36 0.36 0.37 0.34 0.29 0.38 0.28 0.26 0.21 0.22 0.26 0.32 0.38 0.43 0.48 0.53 0.56 0.58 0.57
0.72 0.66 0.68 0.82 0.76 0.57 0.27 0.15 0.14 0.17 0.19 0.20 0.11 0.14 0.11 0.16 0.17 0.19 0.18 0.24 0.26 0.34 0.39 0.35 0.27 0.36 0.34 0.36 0.38 0.37 0.41 0.28 0.29 0.18 0.14 0.18 0.21 0.23 0.32 0.41 0.48 0.52 0.55 0.57 0.60
0.67 0.50 0.66 0.85 0.80 0.47 0.24 0.21 0.19 0.22 0.23 0.17 0.14 0.13 0.14 0.15 0.18 0.18 0.17 0.23 0.29 0.32 0.39 0.39 0.36 0.32 0.33 0.26 0.25 0.32 0.31 0.34 0.34 0.28 0.19 0.16 0.19 0.33 0.39 0.44 0.48 0.54 0.55 0.59 0.60
0.58 0.40 0.72 0.80 0.49 0.43 0.30 0.30 0.30 0.23 0.25 0.21 0.21 0.19 0.16 0.17 0.17 0.18 0.17 0.22 0.32 0.35 0.30 0.38 0.37 0.29 0.24 0.28 0.34 0.35 0.32 0.34 0.26 0.23 0.27 0.26 0.22 0.42 0.43 0.45 0.51 0.55 0.56 0.61 0.60
0.41 0.49 0.71 0.67 0.34 0.36 0.39 0.36 0.34 0.29 0.25 0.20 0.18 0.22 0.23 0.18 0.15 0.18 0.21 0.29 0.32 0.33 0.32 0.38 0.34 0.25 0.20 0.23 0.29 0.27 0.31 0.34 0.35 0.33 0.25 0.22 0.23 0.39 0.41 0.42 0.55 0.56 0.58 0.56 0.53
0.42 0.30 0.47 0.52 0.48 0.42 0.38 0.37 0.32 0.38 0.30 0.29 0.22 0.26 0.22 0.19 0.22 0.17 0.20 0.28 0.33 0.34 0.40 0.43 0.36 0.29 0.19 0.20 0.24 0.23 0.27 0.31 0.32 0.26 0.24 0.25 0.27 0.33 0.36 0.43 0.53 0.58 0.60 0.58 0.54
0.49 0.35 0.41 0.32 0.33 0.38 0.40 0.38 0.35 0.33 0.38 0.32 0.24 0.20 0.19 0.16 0.19 0.18 0.22 0.26 0.30 0.35 0.38 0.40 0.30 0.32 0.28 0.27 0.28 0.28 0.27 0.27 0.28 0.29 0.26 0.26 0.29 0.31 0.37 0.47 0.57 0.61 0.64 0.60 0.57
0.41 0.38 0.45 0.38 0.43 0.39 0.39 0.33 0.33 0.36 0.35 0.31 0.26 0.24 0.20 0.17 0.16 0.16 0.21 0.23 0.23 0.30 0.32 0.41 0.30 0.33 0.22 0.24 0.26 0.25 0.27 0.27 0.27 0.27 0.29 0.30 0.28 0.34 0.52 0.62 0.58 0.62 0.63 0.66 0.67
0.48 0.51 0.45 0.34 0.31 0.33 0.35 0.35 0.35 0.39 0.40 0.40 0.35 0.28 0.20 0.19 0.25 0.29 0.30 0.30 0.30 0.27 0.30 0.34 0.32 0.29 0.18 0.22 0.23 0.21 0.24 0.25 0.26 0.28 0.28 0.26 0.28 0.36 0.50 0.56 0.57 0.60 0.64 0.67 0.69
Wind_Speed
5 5 4 4 4 5 5 6 7 8 10 11 13 14 15 15 13 12 12 15 16 18 18 18 17 16 15 15 15 16 17 20 21 22 23 25 28 29 31 35 36 36 36 35 34
6 5 5 5 5 5 6 7 8 9 11 12 13 14 15 15 13 12 14 15 17 18 17 17 17 16 13 14 15 16 18 19 21 24 27 29 31 32 33 36 39 39 40 40 39
6 6 6 6 6 6 7 8 9 11 12 13 14 15 16 15 14 13 14 16 17 17 17 16 16 15 14 16 16 17 20 22 25 28 29 31 33 34 36 39 36 39 39 39 40
7 7 7 7 7 8 9 10 11 12 13 14 15 16 16 15 14 14 15 16 17 17 17 16 16 16 16 17 18 21 23 26 25 27 28 32 34 35 38 39 38 40 41 43 45
8 8 8 9 9 10 11 12 13 14 15 15 16 16 15 15 13 15 16 17 17 17 17 17 16 17 17 19 22 23 24 25 28 30 32 35 36 37 36 35 37 39 42 42 44
9 9 10 10 11 12 12 13 14 15 16 16 16 16 16 15 13 16 17 18 18 18 17 18 18 18 18 20 21 24 28 31 31 31 32 35 36 34 29 30 31 33 36 41 43
10 11 11 12 12 13 14 15 16 16 17 17 17 16 16 15 14 17 18 18 19 18 18 18 19 19 21 22 23 27 30 29 26 25 30 32 36 31 28 28 32 32 34 35 39
12 12 12 13 14 14 15 16 17 18 17 17 16 17 16 14 16 18 18 19 18 18 19 19 19 21 21 24 25 25 26 27 23 29 28 26 32 26 28 28 29 32 32 34 36
12 13 13 14 14 15 16 16 17 16 15 14 15 15 14 14 16 17 19 19 18 18 19 19 21 21 22 24 23 23 28 31 29 26 27 24 33 23 24 31 38 37 37 35 36
14 14 14 14 15 16 16 17 15 14 13 14 13 15 14 14 16 18 19 18 18 19 19 19 20 22 21 21 24 29 31 30 32 25 32 32 38 35 35 35 37 37 36 36 38
16 16 16 16 15 15 14 13 13 13 14 15 16 16 16 14 16 17 18 18 19 19 19 20 21 22 23 23 27 30 32 34 34 32 31 28 34 35 35 32 33 33 34 34 35
17 16 16 16 16 15 14 13 14 15 17 17 16 16 15 14 16 17 17 18 19 20 20 20 22 21 23 25 27 29 33 34 32 23 29 31 36 34 28 28 30 32 31 31 31
19 18 18 17 16 15 14 14 16 17 17 16 15 13 10 13 16 16 16 18 19 19 20 21 23 23 24 27 28 28 30 32 32 32 30 26 27 18 22 25 25 25 24 26 27
21 20 20 19 18 17 16 16 17 17 17 16 12 10 12 14 15 17 17 19 18 20 21 20 20 23 25 27 26 27 28 29 28 26 22 19 21 22 21 21 18 20 23 24 23
23 22 22 20 20 19 18 18 17 17 16 12 11 12 13 15 18 16 17 18 20 20 20 20 23 25 26 24 21 26 30 30 30 26 23 19 15 18 26 19 22 27 27 23 22
26 24 23 22 22 21 20 19 18 16 17 14 13 14 15 16 17 17 18 19 21 21 20 25 23 23 21 24 24 30 31 31 19 15 12 14 15 22 17 20 25 29 26 23 21
28 27 25 24 23 22 21 20 18 18 15 15 14 14 17 17 17 16 17 18 19 21 20 23 18 19 21 24 22 22 26 20 13 11 15 15 18 21 23 21 26 29 28 25 20
30 29 28 26 25 23 22 20 21 20 18 16 16 17 18 16 16 16 18 19 18 19 22 20 21 17 18 22 24 27 19 16 17 21 25 23 14 17 19 21 27 32 34 24 18
30 30 29 29 27 25 23 23 23 22 19 18 17 18 17 16 17 18 17 18 17 16 17 20 19 21 21 22 22 20 17 17 17 20 17 14 20 22 18 25 33 41 27 20 16
32 31 31 30 29 27 27 28 26 24 22 21 21 18 19 17 17 17 17 16 18 17 19 20 24 19 20 23 18 18 18 14 13 16 21 19 25 22 27 30 37 31 21 17 14
34 33 32 32 29 30 32 31 29 28 24 22 22 21 21 18 19 17 18 18 17 17 18 20 20 20 26 18 23 17 14 12 14 13 15 21 22 22 24 33 30 24 20 13 12
34 34 34 32 31 34 37 33 31 29 28 27 24 24 22 19 19 19 18 18 16 17 18 18 21 22 27 26 19 14 14 15 12 15 17 19 22 17 28 29 24 21 14 4 9
35 35 35 37 36 38 35 35 34 32 30 27 27 25 22 20 19 19 18 18 17 17 18 17 18 23 23 14 14 14 15 17 16 16 19 18 18 27 29 27 22 14 8 3 9
32 34 34 40 39 39 39 38 35 34 35 30 27 25 22 22 22 20 19 18 17 18 18 18 19 18 20 25 25 24 22 19 17 14 19 19 29 30 28 26 18 11 5 3 10
34 35 37 34 41 41 37 37 38 35 33 32 30 32 26 23 22 22 22 21 19 18 17 17 19 20 23 25 23 22 19 18 15 17 16 23 27 30 25 22 13 7 2 5 11
33 35 34 35 39 42 43 41 42 38 34 33 35 31 30 29 25 21 18 17 17 14 15 16 18 19 23 18 14 18 17 15 14 15 16 20 24 21 22 17 8 6 4 6 12
35 37 37 40 47 45 41 46 45 41 40 40 37 34 33 33 28 25 22 19 18 16 15 16 15 16 15 17 20 10 7 9 11 10 13 16 22 21 20 15 8 5 7 11 16
Wind_Direction
293 292 295 295 299 305 310 315 319 323 326 327 328 328 328 327 322 318 322 318 319 319 317 314 313 310 304 301 299 293 286 285 285 282 283 280 277 273 269 266 262 258 255 255 256
281 286 290 293 299 304 308 314 318 321 323 325 326 328 328 327 322 323 319 321 322 323 321 322 320 316 308 307 304 298 295 293 291 288 286 284 280 278 273 268 264 261 257 255 253
282 281 285 289 292 298 304 308 313 317 320 322 324 326 327 326 320 320 321 322 324 326 323 322 319 317 313 310 307 304 298 299 294 290 289 286 282 278 273 269 268 264 260 256 252
280 281 283 285 289 294 300 305 310 313 317 319 321 323 325 324 323 320 321 322 323 324 324 321 319 316 314 311 310 304 300 297 298 295 291 288 289 281 273 270 270 268 263 257 255
278 281 282 285 288 293 298 303 307 310 313 316 319 321 322 321 320 320 321 322 322 323 324 322 321 316 313 311 310 302 304 303 298 293 292 293 288 283 277 276 271 267 262 258 254
279 280 283 286 290 293 297 301 304 307 310 312 315 317 318 317 317 320 320 320 321 321 321 319 315 314 311 310 309 310 306 304 300 296 295 293 289 284 278 278 276 273 267 260 255
278 281 284 287 290 292 295 299 302 305 306 307 310 313 313 315 314 319 318 319 318 318 317 317 314 312 312 310 309 307 308 308 306 300 297 299 290 275 277 279 279 277 273 268 260
280 282 285 288 290 292 294 298 301 304 305 303 305 309 310 308 312 316 318 318 317 317 317 316 314 313 312 312 311 311 309 315 310 305 299 295 289 285 285 283 283 281 277 271 265
282 285 287 290 291 293 295 298 301 303 306 307 307 307 310 308 313 318 318 317 317 317 317 316 315 314 313 315 314 314 313 312 313 308 300 286 291 285 287 285 286 280 277 273 270
281 287 289 291 293 295 296 300 299 302 307 309 310 311 307 308 313 318 319 319 318 317 316 315 315 314 313 315 317 315 315 311 308 307 300 290 283 286 289 287 287 282 276 272 271
280 282 284 289 292 294 300 298 300 301 304 303 305 307 308 307 313 318 320 320 319 317 317 318 315 310 313 310 310 312 310 309 306 303 300 294 289 292 292 289 289 287 278 274 271
280 283 284 288 287 289 290 294 300 301 303 303 300 301 300 307 314 317 318 319 320 318 318 315 310 314 315 313 311 312 311 310 310 304 303 299 293 295 293 291 292 294 283 275 271
278 279 282 284 285 284 287 291 297 301 300 302 302 301 302 307 316 319 317 321 320 319 318 312 311 314 313 314 314 312 309 310 306 310 303 299 294 301 304 302 301 299 294 282 269
274 275 278 280 277 279 282 288 295 300 300 299 298 298 302 309 313 319 316 322 321 322 322 313 315 314 314 313 314 318 318 312 309 310 307 314 297 300 306 315 320 316 307 292 271
270 272 275 275 273 274 278 284 290 295 297 294 293 298 300 305 314 317 317 319 318 321 322 318 315 315 314 316 318 314 320 313 306 300 301 300 289 297 302 305 315 318 309 300 276
266 268 272 270 269 270 274 278 283 284 278 284 289 293 298 303 308 313 315 316 320 320 315 309 314 314 315 319 313 316 320 314 313 307 293 301 292 306 305 310 315 320 314 302 281
263 264 267 266 267 267 269 273 276 267 280 279 283 287 297 301 305 306 311 314 316 323 325 327 323 317 316 320 322 325 325 323 319 312 303 312 299 291 302 307 317 323 316 305 281
260 260 263 264 262 262 263 266 263 271 268 276 281 286 291 298 300 306 310 313 310 312 322 329 332 323 321 322 322 323 322 317 313 315 308 307 294 308 309 307 316 318 312 296 275
258 259 260 260 257 256 258 259 261 263 268 267 277 281 285 290 296 303 303 309 314 309 319 323 326 323 316 319 324 330 319 316 306 302 307 307 303 304 311 318 319 321 306 291 271
256 258 259 257 251 252 255 258 260 262 264 267 269 272 279 284 289 297 304 307 313 308 318 324 322 330 329 325 319 315 329 321 313 314 314 314 313 319 322 326 328 326 311 292 254
255 257 258 249 248 252 254 255 259 259 258 261 267 269 273 280 282 290 298 304 306 315 313 321 321 325 327 324 324 319 321 316 312 307 314 319 323 331 330 331 329 325 322 292 228
253 255 253 243 251 254 253 254 255 257 256 260 264 264 266 270 279 283 289 295 303 309 314 316 320 322 318 319 322 311 315 321 314 318 309 307 315 337 329 333 337 335 341 319 196
252 256 252 244 252 251 255 255 255 252 252 253 255 258 262 265 274 274 285 297 294 303 312 320 321 324 329 335 337 321 315 310 307 309 303 307 312 324 329 334 338 337 347 42 153
255 254 252 247 252 254 252 251 253 252 252 251 254 254 258 261 263 279 282 293 293 297 305 314 315 306 310 313 318 311 308 305 304 309 312 305 309 325 333 336 337 344 344 88 153
254 256 252 253 249 251 252 254 250 250 248 247 252 247 250 258 262 267 274 284 288 297 302 308 311 309 306 309 309 306 304 307 302 295 309 311 322 326 336 337 339 349 9 142 148
256 255 254 253 254 250 247 249 250 248 247 248 248 245 245 250 253 263 266 276 286 296 298 308 315 319 315 319 322 310 305 303 306 312 307 316 323 346 346 348 356 30 97 133 148
258 258 257 257 253 251 249 248 249 246 248 248 245 245 243 246 249 258 263 273 281 285 291 303 314 324 320 328 323 318 323 321 323 329 333 339 341 343 348 360 20 46 100 130 141